Location: Unspecified
(0.0000°N, 0.0000°E)
Time: 12:02:44
(UTC+00:00)

deb OV3-4 - Pass Details

Date: 14 June 2025
Orbit: 581 x 4212 km, 40.6° (Epoch: 19 July)

Event Time Altitude Azimuth Distance (km) Brightness Sun altitude
Rises 22:49:03 0° 309° (NW) 8,441 ? -60.9°
Reaches altitude 10° 22:55:11 10° 307° (NW) 7,296 ? -61.8°
Enters shadow 23:10:56 47° 292° (WNW) 4,177 ? -63.8°
